This demonstration page uses our WeatherBlox Daily Observations layout. Learn more.

Left ArrowRight Arrow

Hourly Observations for February 1, 2018

Temp ( °F °C ) Dew Point ( °F °C ) Humidity (%) Winds ( mph kmh ) Pressure ( in mb ) Visibility ( mi km ) Precip ( " mm )
12:15 am 00:15 Cloudy 41 5 34 1 76 76 SW 7 11 29.88 1012 10 16 N/A
12:35 am 00:35 Cloudy 41 5 34 1 76 76 S 6 9 29.88 1012 10 16 N/A
12:55 am 00:55 Cloudy 39 4 34 1 81 81 SSW 5 7 29.88 1012 10 16 N/A
1:15 am 01:15 Cloudy 37 3 34 1 87 87 SSW 3 6 29.88 1012 10 16 N/A
1:35 am 01:35 Cloudy 37 3 34 1 87 87 SSW 3 6 29.88 1012 10 16 N/A
1:55 am 01:55 Cloudy 37 3 34 1 87 87 SSW 3 6 29.88 1012 10 16 N/A
2:15 am 02:15 Cloudy 37 3 34 1 87 87 SSW 3 6 29.88 1012 10 16 N/A
2:35 am 02:35 Cloudy 37 3 34 1 87 87 SSW 5 7 29.88 1012 10 16 N/A
2:55 am 02:55 Mostly Cloudy 37 3 34 1 87 87 SW 5 7 29.88 1012 10 16 N/A
3:15 am 03:15 Mostly Cloudy 37 3 34 1 87 87 SSW 6 9 29.88 1012 10 16 N/A
3:35 am 03:35 Mostly Cloudy 37 3 34 1 87 87 SW 6 9 29.88 1012 10 16 N/A
3:55 am 03:55 Partly Cloudy 37 3 34 1 87 87 SW 3 6 29.88 1012 10 16 N/A
4:15 am 04:15 Mostly Cloudy 37 3 34 1 87 87 SSW 5 7 29.88 1012 10 16 N/A
4:35 am 04:35 Cloudy 37 3 34 1 87 87 SW 6 9 29.88 1012 10 16 N/A
4:55 am 04:55 Cloudy 37 3 34 1 87 87 WSW 6 9 29.88 1012 10 16 N/A
5:15 am 05:15 Mostly Cloudy 36 2 34 1 93 93 W 6 9 29.91 1013 10 16 N/A
5:35 am 05:35 Partly Cloudy 36 2 34 1 93 93 W 6 9 29.91 1013 10 16 N/A
5:55 am 05:55 Partly Cloudy 36 2 34 1 93 93 W 6 9 29.91 1013 10 16 N/A
6:15 am 06:15 Mostly Cloudy 36 2 34 1 93 93 WSW 6 9 29.91 1013 10 16 N/A
6:35 am 06:35 Cloudy 36 2 34 1 93 93 W 7 11 29.91 1013 10 16 N/A
6:55 am 06:55 Mostly Cloudy 36 2 34 1 93 93 WNW 10 17 29.97 1015 10 16 N/A
7:15 am 07:15 Cloudy 36 2 32 undefined 87 87 W 7 11 29.91 1013 10 16 N/A
7:35 am 07:35 Mostly Cloudy 34 1 30 -1 87 87 W 7 11 29.94 1014 10 16 N/A
7:55 am 07:55 Partly Cloudy 34 1 30 -1 87 87 W 7 11 29.97 1015 10 16 N/A
8:15 am 08:15 Partly Cloudy 34 1 30 -1 87 87 WSW 6 9 29.97 1015 10 16 N/A
8:35 am 08:35 Partly Cloudy 34 1 30 -1 87 87 W 7 11 29.97 1015 10 16 N/A
8:55 am 08:55 Mostly Cloudy 36 2 30 -1 81 81 WNW 7 11 29.97 1015 10 16 N/A
9:15 am 09:15 Partly Cloudy 36 2 30 -1 81 81 W 9 15 30.00 1016 10 16 N/A
9:35 am 09:35 Partly Cloudy 36 2 30 -1 81 81 W 9 15 30.00 1016 10 16 N/A
9:55 am 09:55 Cloudy 37 3 30 -1 75 75 W 8 13 29.97 1015 10 16 N/A
10:15 am 10:15 Cloudy 37 3 30 -1 75 75 W 12 19 30.00 1016 10 16 N/A
10:35 am 10:35 Cloudy 37 3 30 -1 75 75 W 12 19 30.00 1016 10 16 N/A
10:55 am 10:55 Cloudy 37 3 32 undefined 81 81 W 12 19 30.03 1017 10 16 N/A
11:15 am 11:15 Cloudy 37 3 30 -1 75 75 W 14 22 30.03 1017 10 16 N/A
11:35 am 11:35 Cloudy 37 3 30 -1 75 75 W 15 24 30.03 1017 10 16 N/A
11:55 am 11:55 Cloudy 36 2 30 -1 81 81 W 17 28 30.06 1018 10 16 N/A
12:15 pm 12:15 Cloudy 36 2 30 -1 81 81 W 14 22 30.09 1019 10 16 N/A
12:35 pm 12:35 Cloudy 36 2 30 -1 81 81 WNW 18 30 30.06 1018 10 16 N/A
12:55 pm 12:55 Cloudy 34 1 28 -2 81 81 WNW 18 30 30.06 1018 10 16 N/A
1:15 pm 13:15 Cloudy 34 1 28 -2 81 81 WNW 17 28 30.06 1018 10 16 N/A
1:35 pm 13:35 Cloudy 34 1 28 -2 81 81 NW 14 22 30.06 1018 10 16 N/A
1:55 pm 13:55 Cloudy 32 undefined 27 -3 80 80 WNW 18 30 30.09 1019 10 16 N/A
2:15 pm 14:15 Cloudy 32 undefined 25 -4 75 75 WNW 17 28 30.09 1019 10 16 N/A
2:35 pm 14:35 Cloudy 30 -1 25 -4 80 80 WNW 18 30 30.09 1019 10 16 N/A
2:55 pm 14:55 Cloudy 30 -1 23 -5 75 75 WNW 18 30 30.09 1019 10 16 N/A
3:15 pm 15:15 Cloudy 30 -1 21 -6 69 69 NW 14 22 30.12 1020 10 16 N/A
3:35 pm 15:35 Cloudy 28 -2 21 -6 74 74 NW 14 22 30.12 1020 10 16 N/A
3:55 pm 15:55 Cloudy 28 -2 19 -7 69 69 WNW 15 24 30.12 1020 10 16 N/A
4:15 pm 16:15 Partly Cloudy 28 -2 19 -7 69 69 NW 13 20 30.15 1021 10 16 N/A
4:35 pm 16:35 Partly Cloudy 27 -3 19 -7 74 74 WNW 14 22 30.15 1021 10 16 N/A
4:55 pm 16:55 Partly Cloudy 27 -3 18 -8 69 69 WNW 17 28 30.15 1021 10 16 N/A
5:15 pm 17:15 Sunny 25 -4 16 -9 69 69 WNW 18 30 30.18 1022 10 16 N/A
5:35 pm 17:35 Sunny 25 -4 16 -9 69 69 WNW 21 33 30.18 1022 10 16 N/A
5:55 pm 17:55 Sunny 25 -4 16 -9 69 69 WNW 20 31 30.24 1024 10 16 N/A
6:15 pm 18:15 Clear 23 -5 14 -10 68 68 WNW 18 30 30.24 1024 10 16 N/A
6:35 pm 18:35 Clear 23 -5 14 -10 68 68 WNW 15 24 30.27 1025 10 16 N/A
6:55 pm 18:55 Clear 23 -5 12 -11 63 63 NW 17 28 N/A 10 16 N/A
7:15 pm 19:15 Clear 21 -6 12 -11 68 68 NW 17 28 30.27 1025 10 16 N/A
7:35 pm 19:35 Clear 21 -6 12 -11 68 68 WNW 17 28 30.27 1025 10 16 N/A
7:55 pm 19:55 Clear 21 -6 12 -11 68 68 WNW 17 28 30.27 1025 10 16 N/A
8:15 pm 20:15 Partly Cloudy 19 -7 12 -11 73 73 NW 18 30 30.27 1025 10 16 N/A
8:35 pm 20:35 Partly Cloudy 19 -7 12 -11 73 73 WNW 15 24 30.30 1026 10 16 N/A
8:56 pm 20:56 Partly Cloudy 19 -7 10 -12 68 68 WNW 21 33 30.30 1026 10 16 N/A
9:15 pm 21:15 Mostly Cloudy 19 -7 10 -12 68 68 NW 20 31 30.30 1026 10 16 N/A
9:35 pm 21:35 Cloudy 19 -7 10 -12 68 68 NW 17 28 30.33 1027 10 16 N/A
9:55 pm 21:55 Cloudy 18 -8 10 -12 73 73 NW 18 30 30.33 1027 10 16 N/A
10:15 pm 22:15 Cloudy 18 -8 9 -13 68 68 WNW 17 28 30.33 1027 10 16 N/A
10:35 pm 22:35 Cloudy 18 -8 9 -13 68 68 NNW 17 28 30.36 1028 10 16 N/A
10:55 pm 22:55 Cloudy 16 -9 9 -13 73 73 NW 15 24 30.36 1028 10 16 N/A
11:15 pm 23:15 Mostly Cloudy 16 -9 7 -14 67 67 NW 17 28 30.36 1028 10 16 N/A
11:35 pm 23:35 Partly Cloudy 14 -10 7 -14 73 73 NW 12 19 30.39 1029 10 16 N/A
11:55 pm 23:55 Mostly Cloudy 14 -10 9 -13 79 79 NNW 15 24 30.39 1029 10 16 N/A

Powered by AerisWeather